When you browse on this site, cookies collect data to enhance your experience and personalize the content and advertising you see.
Visit our Privacy Policy to learn more. By continuing to use the site, you agree to this use of cookies and data.
  • In Austria
  • List of Countries
  • For 7 days
  • Water Temperature
  • Satellite Maps
  • Weather Map
  • News
  • Weather Widgets
  • user-avatar
    Login

    Hourly Weather Fakuoka

    Today, 18 July, Thursday

    Time Temperature Precipitation Wind Pressure Humidity
    00:00 +25°C° 0 mm 0 mps 738 mmHg 80%
    01:00 +24°C° 0 mm 0 mps 738 mmHg 81%
    02:00 +24°C° 0 mm 0 mps 737 mmHg 81%
    03:00 +24°C° 0 mm 0 mps 737 mmHg 80%
    04:00 +24°C° 0.1 mm 0 mps 737 mmHg 80%
    05:00 +26°C° 0.1 mm 1 mps 738 mmHg 81%
    06:00 +26°C° 0.1 mm 1 mps 738 mmHg 81%
    07:00 +26°C° 1 mm 1 mps 737 mmHg 80%
    08:00 +27°C° 1 mm 1 mps 737 mmHg 79%
    09:00 +27°C° 0 mm 1 mps 737 mmHg 83%
    10:00 +28°C° 0.5 mm 1 mps 737 mmHg 78%
    11:00 +30°C° 0.5 mm 1 mps 737 mmHg 73%
    12:00 +31°C° 0.5 mm 2 mps 737 mmHg 68%
    13:00 +30°C° 1.4 mm 2 mps 737 mmHg 70%
    14:00 +30°C° 1.4 mm 2 mps 736 mmHg 72%
    15:00 +30°C° 0 mm 2 mps 737 mmHg 72%
    16:00 +29°C° 2.5 mm 2 mps 737 mmHg 74%
    17:00 +29°C° 2.5 mm 2 mps 737 mmHg 75%
    18:00 +29°C° 2.5 mm 2 mps 737 mmHg 77%
    19:00 +28°C° 3.7 mm 2 mps 737 mmHg 80%
    20:00 +27°C° 3.7 mm 1 mps 737 mmHg 84%
    21:00 +26°C° 3.7 mm 1 mps 737 mmHg 88%
    22:00 +26°C° 1.2 mm 1 mps 737 mmHg 87%
    23:00 +26°C° 1.2 mm 1 mps 737 mmHg 86%

    Tomorrow, 19 July, Friday

    Time Temperature Precipitation Wind Pressure Humidity
    00:00 +26°C° 1.2 mm 1 mps 738 mmHg 85%
    01:00 +26°C° 1 mm 1 mps 737 mmHg 85%
    02:00 +26°C° 1 mm 1 mps 737 mmHg 86%
    03:00 +25°C° 1 mm 2 mps 736 mmHg 86%
    04:00 +25°C° 0.4 mm 2 mps 736 mmHg 87%
    05:00 +25°C° 0.4 mm 1 mps 737 mmHg 88%
    06:00 +25°C° 0.4 mm 1 mps 737 mmHg 89%
    07:00 +25°C° 1 mm 2 mps 737 mmHg 89%
    08:00 +25°C° 1 mm 2 mps 736 mmHg 89%
    09:00 +25°C° 1 mm 3 mps 736 mmHg 89%
    10:00 +26°C° 0.2 mm 3 mps 736 mmHg 85%
    11:00 +27°C° 0.2 mm 3 mps 736 mmHg 81%
    12:00 +28°C° 0.2 mm 3 mps 736 mmHg 77%
    13:00 +27°C° 1.1 mm 3 mps 736 mmHg 79%
    14:00 +27°C° 1.1 mm 3 mps 735 mmHg 80%
    15:00 +26°C° 1.1 mm 3 mps 735 mmHg 82%
    16:00 +26°C° 2 mm 3 mps 734 mmHg 84%
    17:00 +26°C° 2 mm 4 mps 734 mmHg 85%
    18:00 +26°C° 2 mm 5 mps 733 mmHg 87%
    19:00 +25°C° 8.4 mm 5 mps 733 mmHg 89%
    20:00 +25°C° 8.4 mm 5 mps 732 mmHg 91%
    21:00 +23°C° 8.4 mm 6 mps 732 mmHg 93%
    22:00 +24°C° 6 mm 6 mps 731 mmHg 92%
    23:00 +24°C° 6 mm 6 mps 731 mmHg 91%

    Day after tomorrow, 20 July, Saturday

    Time Temperature Precipitation Wind Pressure Humidity
    00:00 +26°C° 6 mm 6 mps 730 mmHg 89%
    01:00 +26°C° 1.4 mm 7 mps 729 mmHg 88%
    02:00 +26°C° 1.4 mm 8 mps 729 mmHg 87%
    03:00 +27°C° 1.4 mm 9 mps 728 mmHg 86%
    04:00 +26°C° 10.7 mm 8 mps 728 mmHg 88%
    05:00 +26°C° 10.7 mm 7 mps 728 mmHg 91%
    06:00 +26°C° 10.7 mm 6 mps 728 mmHg 93%
    07:00 +26°C° 3.5 mm 7 mps 728 mmHg 91%
    08:00 +27°C° 3.5 mm 8 mps 728 mmHg 89%
    09:00 +27°C° 3.5 mm 9 mps 728 mmHg 87%
    10:00 +27°C° 0.7 mm 9 mps 728 mmHg 84%
    11:00 +28°C° 0.7 mm 9 mps 728 mmHg 82%
    12:00 +28°C° 0.7 mm 9 mps 729 mmHg 79%
    13:00 +28°C° 0.2 mm 9 mps 729 mmHg 78%
    14:00 +29°C° 0.2 mm 9 mps 729 mmHg 76%
    15:00 +29°C° 0.2 mm 9 mps 729 mmHg 74%
    16:00 +28°C° 0.2 mm 8 mps 729 mmHg 76%
    17:00 +28°C° 0.2 mm 8 mps 729 mmHg 77%
    18:00 +28°C° 0.2 mm 7 mps 730 mmHg 79%
    19:00 +27°C° 0 mm 7 mps 730 mmHg 81%
    20:00 +27°C° 0 mm 6 mps 730 mmHg 83%
    21:00 +27°C° 0 mm 5 mps 730 mmHg 84%
    22:00 +26°C° 0 mm 5 mps 731 mmHg 85%
    23:00 +26°C° 0 mm 5 mps 731 mmHg 85%

    21 July, Sunday

    Time Temperature Precipitation Wind Pressure Humidity
    00:00 +26°C° 0 mm 5 mps 731 mmHg 85%
    01:00 +26°C° 0 mm 5 mps 731 mmHg 85%
    02:00 +26°C° 0 mm 5 mps 732 mmHg 85%
    03:00 +26°C° 0 mm 5 mps 732 mmHg 85%
    04:00 +26°C° 0 mm 5 mps 732 mmHg 86%
    05:00 +26°C° 0 mm 4 mps 732 mmHg 87%
    06:00 +25°C° 0 mm 4 mps 733 mmHg 87%
    07:00 +26°C° 0 mm 4 mps 733 mmHg 83%
    08:00 +27°C° 0 mm 5 mps 733 mmHg 78%
    09:00 +28°C° 0 mm 5 mps 734 mmHg 73%
    10:00 +29°C° 0 mm 5 mps 734 mmHg 69%
    11:00 +30°C° 0 mm 5 mps 734 mmHg 65%
    12:00 +32°C° 0 mm 5 mps 734 mmHg 60%
    13:00 +32°C° 0 mm 5 mps 734 mmHg 59%
    14:00 +33°C° 0 mm 5 mps 734 mmHg 58%
    15:00 +33°C° 0 mm 5 mps 734 mmHg 57%
    16:00 +32°C° 0 mm 4 mps 734 mmHg 59%
    17:00 +30°C° 0 mm 4 mps 734 mmHg 62%
    18:00 +30°C° 0 mm 3 mps 734 mmHg 64%
    19:00 +29°C° 0 mm 3 mps 734 mmHg 68%
    20:00 +28°C° 0 mm 3 mps 734 mmHg 72%
    21:00 +27°C° 0 mm 2 mps 735 mmHg 76%
    22:00 +27°C° 0 mm 2 mps 735 mmHg 77%
    23:00 +26°C° 0 mm 2 mps 735 mmHg 78%

    22 July, Monday

    Time Temperature Precipitation Wind Pressure Humidity
    00:00 +26°C° 0 mm 1 mps 735 mmHg 79%
    01:00 +26°C° 0 mm 1 mps 735 mmHg 80%
    02:00 +26°C° 0 mm 1 mps 735 mmHg 81%
    03:00 +26°C° 0 mm 1 mps 735 mmHg 82%
    04:00 +26°C° 0.2 mm 1 mps 735 mmHg 82%
    05:00 +26°C° 0.2 mm 1 mps 735 mmHg 83%
    06:00 +26°C° 0.2 mm 1 mps 735 mmHg 83%
    07:00 +27°C° 0.4 mm 1 mps 735 mmHg 79%
    08:00 +28°C° 0.4 mm 1 mps 736 mmHg 75%
    09:00 +30°C° 0.4 mm 2 mps 736 mmHg 71%
    10:00 +31°C° 0.4 mm 2 mps 736 mmHg 67%
    11:00 +31°C° 0.4 mm 3 mps 736 mmHg 64%
    12:00 +33°C° 0.4 mm 3 mps 736 mmHg 61%
    13:00 +33°C° 0.6 mm 3 mps 735 mmHg 61%
    14:00 +33°C° 0.6 mm 4 mps 735 mmHg 61%
    15:00 +33°C° 0.6 mm 4 mps 735 mmHg 62%
    16:00 +33°C° 0.5 mm 3 mps 735 mmHg 65%
    17:00 +31°C° 0.5 mm 3 mps 735 mmHg 68%
    18:00 +30°C° 0.5 mm 3 mps 735 mmHg 72%
    19:00 +29°C° 0.1 mm 2 mps 735 mmHg 75%
    20:00 +29°C° 0.1 mm 2 mps 735 mmHg 77%
    21:00 +28°C° 0.1 mm 2 mps 736 mmHg 80%
    22:00 +28°C° 0.2 mm 2 mps 736 mmHg 81%
    23:00 +27°C° 0.2 mm 2 mps 735 mmHg 82%

    23 July, Tuesday

    Time Temperature Precipitation Wind Pressure Humidity
    00:00 +27°C° 0.2 mm 2 mps 735 mmHg 83%
    01:00 +27°C° 0.2 mm 2 mps 735 mmHg 83%
    02:00 +27°C° 0.2 mm 2 mps 735 mmHg 84%
    03:00 +27°C° 0.2 mm 2 mps 735 mmHg 84%
    04:00 +27°C° 0 mm 2 mps 735 mmHg 84%
    05:00 +26°C° 0 mm 2 mps 735 mmHg 85%
    06:00 +26°C° 0 mm 2 mps 735 mmHg 85%
    07:00 +27°C° 0 mm 2 mps 735 mmHg 80%
    08:00 +29°C° 0 mm 2 mps 735 mmHg 76%
    09:00 +30°C° 0 mm 3 mps 736 mmHg 71%
    10:00 +30°C° 0 mm 3 mps 735 mmHg 68%
    11:00 +31°C° 0 mm 3 mps 735 mmHg 64%
    12:00 +33°C° 0 mm 3 mps 735 mmHg 60%
    13:00 +33°C° 0 mm 4 mps 735 mmHg 59%
    14:00 +34°C° 0 mm 4 mps 735 mmHg 58%
    15:00 +34°C° 0 mm 4 mps 734 mmHg 56%
    16:00 +33°C° 0 mm 4 mps 734 mmHg 60%
    17:00 +32°C° 0 mm 4 mps 734 mmHg 64%
    18:00 +30°C° 0 mm 4 mps 734 mmHg 67%
    19:00 +30°C° 0 mm 4 mps 734 mmHg 71%
    20:00 +29°C° 0 mm 3 mps 735 mmHg 76%
    21:00 +28°C° 0 mm 3 mps 735 mmHg 80%
    22:00 +28°C° 0 mm 3 mps 735 mmHg 81%
    23:00 +28°C° 0 mm 3 mps 735 mmHg 81%
    Show more